QPF
0.00 0.00 0.00 0.00 0.00 0.00 0.00 0.00 0.00 0.00 0.00 0.00 0.00 0.01 0.01 0.01 0.02 0.01 0.02 0.01 0.02 0.04 0.03 0.03 0.03 0.03 0.02 0.02 0.03 0.04 0.05 0.07 0.08 0.10 0.11 0.12 0.10 0.07 0.04 0.03 0.03 0.03 0.03 0.02
0.00 0.00 0.00 0.00 0.00 0.00 0.00 0.00 0.00 0.00 0.00 0.01 0.00 0.00 0.01 0.01 0.02 0.01 0.02 0.02 0.02 0.02 0.02 0.02 0.02 0.01 0.01 0.02 0.04 0.06 0.06 0.08 0.10 0.11 0.09 0.07 0.05 0.04 0.03 0.03 0.03 0.03 0.03 0.03
0.00 0.00 0.00 0.00 0.00 0.00 0.00 0.00 0.00 0.00 0.01 0.01 0.01 0.01 0.01 0.02 0.02 0.02 0.03 0.03 0.03 0.03 0.03 0.02 0.02 0.02 0.03 0.03 0.05 0.08 0.10 0.10 0.10 0.09 0.07 0.06 0.05 0.04 0.03 0.03 0.03 0.03 0.03 0.04
0.00 0.01 0.00 0.00 0.00 0.00 0.01 0.01 0.01 0.01 0.01 0.01 0.01 0.02 0.02 0.02 0.04 0.04 0.05 0.05 0.05 0.03 0.03 0.02 0.02 0.03 0.04 0.06 0.08 0.09 0.09 0.08 0.08 0.09 0.10 0.11 0.10 0.07 0.06 0.06 0.05 0.05 0.05 0.06
0.01 0.01 0.00 0.00 0.01 0.01 0.01 0.01 0.01 0.01 0.01 0.02 0.03 0.03 0.02 0.02 0.03 0.06 0.09 0.07 0.06 0.05 0.04 0.04 0.04 0.03 0.04 0.05 0.05 0.06 0.07 0.07 0.11 0.13 0.11 0.10 0.10 0.09 0.09 0.09 0.08 0.07 0.06 0.05
0.01 0.01 0.01 0.01 0.01 0.01 0.01 0.01 0.02 0.02 0.02 0.03 0.03 0.03 0.01 0.02 0.06 0.12 0.10 0.07 0.05 0.04 0.03 0.03 0.04 0.04 0.04 0.05 0.05 0.05 0.07 0.11 0.13 0.14 0.13 0.11 0.10 0.09 0.08 0.08 0.08 0.06 0.04 0.03
0.00 0.00 0.00 0.01 0.01 0.01 0.01 0.01 0.01 0.02 0.03 0.03 0.03 0.04 0.04 0.03 0.04 0.06 0.05 0.05 0.05 0.05 0.04 0.03 0.03 0.03 0.06 0.06 0.07 0.08 0.08 0.09 0.14 0.13 0.12 0.11 0.10 0.09 0.08 0.08 0.07 0.06 0.05 0.04
0.01 0.01 0.01 0.01 0.01 0.01 0.01 0.01 0.01 0.01 0.02 0.02 0.03 0.04 0.05 0.04 0.04 0.05 0.05 0.05 0.04 0.03 0.03 0.04 0.03 0.03 0.03 0.04 0.05 0.06 0.06 0.06 0.08 0.08 0.08 0.09 0.08 0.08 0.08 0.07 0.08 0.08 0.07 0.06
0.01 0.01 0.01 0.01 0.01 0.01 0.01 0.01 0.01 0.01 0.01 0.02 0.02 0.02 0.03 0.03 0.03 0.03 0.03 0.03 0.02 0.01 0.01 0.02 0.02 0.02 0.02 0.03 0.04 0.05 0.05 0.07 0.09 0.10 0.08 0.08 0.08 0.08 0.08 0.08 0.10 0.13 0.14 0.11
0.04 0.04 0.04 0.03 0.02 0.01 0.01 0.01 0.01 0.01 0.01 0.01 0.02 0.02 0.01 0.02 0.02 0.02 0.02 0.02 0.02 0.01 0.01 0.01 0.01 0.01 0.01 0.02 0.02 0.02 0.03 0.04 0.04 0.05 0.05 0.05 0.06 0.06 0.06 0.08 0.10 0.13 0.13 0.11
0.09 0.08 0.08 0.05 0.03 0.02 0.01 0.00 0.00 0.01 0.01 0.01 0.02 0.02 0.02 0.02 0.03 0.03 0.04 0.04 0.03 0.02 0.02 0.01 0.01 0.01 0.02 0.02 0.02 0.01 0.02 0.02 0.01 0.02 0.03 0.04 0.04 0.05 0.05 0.06 0.08 0.10 0.09 0.08
0.11 0.07 0.06 0.04 0.03 0.02 0.02 0.01 0.01 0.01 0.01 0.02 0.03 0.03 0.03 0.03 0.04 0.05 0.04 0.04 0.03 0.03 0.02 0.02 0.02 0.02 0.02 0.02 0.03 0.02 0.01 0.02 0.02 0.02 0.03 0.04 0.03 0.03 0.04 0.05 0.05 0.05 0.05 0.05
0.04 0.03 0.02 0.02 0.02 0.02 0.03 0.01 0.00 0.01 0.01 0.02 0.03 0.05 0.05 0.05 0.05 0.05 0.04 0.03 0.03 0.04 0.03 0.03 0.02 0.02 0.02 0.02 0.04 0.04 0.04 0.03 0.03 0.04 0.04 0.04 0.03 0.03 0.04 0.05 0.05 0.04 0.04 0.04
0.02 0.02 0.02 0.01 0.01 0.01 0.03 0.03 0.01 0.01 0.01 0.02 0.03 0.04 0.05 0.05 0.06 0.07 0.05 0.05 0.05 0.05 0.03 0.02 0.02 0.02 0.02 0.02 0.02 0.03 0.03 0.03 0.02 0.03 0.03 0.03 0.03 0.04 0.05 0.04 0.04 0.03 0.04 0.04
0.01 0.01 0.01 0.01 0.01 0.01 0.01 0.03 0.02 0.02 0.02 0.02 0.02 0.02 0.03 0.05 0.07 0.11 0.09 0.06 0.06 0.06 0.05 0.04 0.03 0.03 0.03 0.03 0.03 0.03 0.03 0.04 0.04 0.03 0.04 0.04 0.05 0.06 0.05 0.04 0.04 0.03 0.03 0.04
0.01 0.01 0.01 0.01 0.00 0.01 0.01 0.02 0.03 0.02 0.02 0.02 0.03 0.04 0.04 0.04 0.05 0.06 0.06 0.06 0.06 0.07 0.07 0.06 0.06 0.05 0.04 0.02 0.02 0.03 0.06 0.08 0.06 0.05 0.06 0.07 0.06 0.06 0.06 0.05 0.05 0.05 0.06 0.06
0.02 0.01 0.01 0.01 0.00 0.00 0.00 0.01 0.02 0.02 0.02 0.03 0.02 0.03 0.05 0.05 0.06 0.05 0.05 0.05 0.05 0.06 0.06 0.05 0.05 0.04 0.03 0.02 0.02 0.03 0.04 0.05 0.05 0.05 0.05 0.06 0.07 0.06 0.06 0.05 0.05 0.05 0.05 0.05
0.01 0.01 0.01 0.01 0.01 0.01 0.01 0.01 0.01 0.02 0.02 0.02 0.03 0.04 0.04 0.03 0.03 0.04 0.03 0.03 0.03 0.04 0.05 0.05 0.03 0.03 0.03 0.02 0.02 0.03 0.03 0.05 0.07 0.04 0.04 0.05 0.06 0.05 0.03 0.03 0.03 0.03 0.03 0.03
0.01 0.01 0.01 0.02 0.02 0.01 0.01 0.02 0.01 0.02 0.03 0.03 0.03 0.03 0.04 0.04 0.03 0.03 0.03 0.02 0.02 0.03 0.04 0.04 0.03 0.02 0.02 0.03 0.03 0.03 0.03 0.05 0.08 0.05 0.03 0.03 0.03 0.02 0.02 0.02 0.01 0.01 0.01 0.02
0.01 0.01 0.01 0.02 0.03 0.02 0.02 0.02 0.01 0.02 0.03 0.04 0.04 0.03 0.03 0.03 0.03 0.04 0.03 0.03 0.02 0.02 0.03 0.03 0.03 0.02 0.02 0.02 0.03 0.03 0.03 0.04 0.06 0.06 0.03 0.02 0.01 0.01 0.01 0.01 0.01 0.01 0.02 0.02
0.02 0.02 0.02 0.02 0.02 0.03 0.02 0.02 0.01 0.02 0.03 0.04 0.04 0.03 0.03 0.02 0.02 0.02 0.03 0.03 0.03 0.02 0.02 0.02 0.02 0.02 0.01 0.01 0.02 0.03 0.03 0.03 0.04 0.05 0.03 0.01 0.01 0.01 0.01 0.01 0.01 0.01 0.01 0.02
0.03 0.02 0.02 0.02 0.02 0.03 0.02 0.02 0.02 0.03 0.04 0.04 0.03 0.03 0.03 0.02 0.02 0.02 0.01 0.02 0.03 0.03 0.03 0.02 0.02 0.01 0.01 0.01 0.01 0.01 0.02 0.01 0.01 0.01 0.01 0.01 0.01 0.01 0.01 0.01 0.01 0.01 0.01 0.01
0.03 0.02 0.01 0.01 0.02 0.02 0.02 0.02 0.04 0.04 0.04 0.03 0.02 0.03 0.03 0.02 0.02 0.02 0.02 0.02 0.03 0.04 0.04 0.03 0.02 0.01 0.01 0.00 0.00 0.01 0.01 0.01 0.01 0.01 0.01 0.01 0.01 0.02 0.02 0.01 0.01 0.01 0.01 0.01
0.03 0.02 0.02 0.02 0.02 0.03 0.03 0.04 0.05 0.05 0.04 0.04 0.03 0.03 0.04 0.03 0.03 0.02 0.02 0.02 0.03 0.04 0.03 0.02 0.01 0.01 0.01 0.01 0.01 0.01 0.01 0.01 0.01 0.01 0.01 0.01 0.01 0.01 0.01 0.01 0.02 0.02 0.01 0.01
0.03 0.03 0.02 0.03 0.03 0.03 0.05 0.05 0.04 0.03 0.03 0.03 0.03 0.04 0.04 0.04 0.04 0.02 0.01 0.01 0.03 0.04 0.03 0.02 0.02 0.02 0.02 0.02 0.01 0.01 0.01 0.01 0.01 0.01 0.01 0.01 0.01 0.01 0.02 0.02 0.03 0.03 0.02 0.01
0.03 0.03 0.03 0.04 0.04 0.04 0.05 0.06 0.04 0.02 0.02 0.02 0.03 0.03 0.03 0.04 0.04 0.03 0.01 0.01 0.01 0.02 0.02 0.01 0.01 0.01 0.01 0.01 0.02 0.02 0.02 0.01 0.01 0.02 0.03 0.03 0.02 0.02 0.03 0.03 0.03 0.03 0.01 0.01
0.06 0.05 0.04 0.04 0.03 0.04 0.05 0.04 0.03 0.03 0.03 0.03 0.03 0.03 0.03 0.03 0.02 0.01 0.01 0.01 0.01 0.01 0.01 0.01 0.01 0.01 0.01 0.01 0.01 0.02 0.05 0.07 0.05 0.04 0.05 0.04 0.04 0.04 0.04 0.03 0.02 0.02 0.02 0.02
MSLP
1009.98 1010.00 1010.08 1010.19 1010.28 1010.30 1010.20 1009.92 1009.45 1008.83 1008.10 1007.36 1006.71 1006.22 1005.97 1005.98 1006.24 1006.69 1007.26 1007.86 1008.42 1008.89 1009.25 1009.53 1009.79 1010.07 1010.44 1010.95 1011.60 1012.36 1013.18 1014.00 1014.74 1015.34 1015.77 1016.02 1016.12 1016.12 1016.09 1016.08 1016.13 1016.27 1016.50 1016.79
1010.33 1010.25 1010.17 1010.06 1009.90 1009.67 1009.34 1008.89 1008.35 1007.74 1007.11 1006.54 1006.10 1005.84 1005.79 1005.96 1006.31 1006.79 1007.33 1007.86 1008.34 1008.73 1009.04 1009.32 1009.61 1009.97 1010.44 1011.06 1011.81 1012.65 1013.52 1014.36 1015.08 1015.64 1016.02 1016.21 1016.25 1016.20 1016.13 1016.09 1016.12 1016.25 1016.47 1016.76
1010.67 1010.51 1010.29 1010.00 1009.66 1009.23 1008.74 1008.18 1007.58 1006.99 1006.45 1006.02 1005.74 1005.65 1005.74 1006.00 1006.40 1006.88 1007.38 1007.85 1008.26 1008.60 1008.90 1009.20 1009.55 1009.99 1010.56 1011.27 1012.10 1012.98 1013.87 1014.69 1015.37 1015.87 1016.18 1016.31 1016.31 1016.23 1016.14 1016.09 1016.12 1016.26 1016.50 1016.80
1011.02 1010.78 1010.46 1010.06 1009.58 1009.03 1008.43 1007.80 1007.19 1006.62 1006.15 1005.81 1005.64 1005.64 1005.81 1006.11 1006.51 1006.97 1007.42 1007.84 1008.22 1008.55 1008.87 1009.22 1009.64 1010.17 1010.82 1011.59 1012.46 1013.35 1014.21 1014.97 1015.59 1016.02 1016.27 1016.34 1016.31 1016.22 1016.15 1016.13 1016.20 1016.37 1016.63 1016.96
1011.37 1011.06 1010.66 1010.18 1009.62 1009.00 1008.36 1007.71 1007.09 1006.55 1006.13 1005.84 1005.72 1005.75 1005.94 1006.24 1006.62 1007.04 1007.46 1007.86 1008.23 1008.59 1008.96 1009.39 1009.88 1010.49 1011.20 1012.00 1012.86 1013.72 1014.52 1015.20 1015.73 1016.09 1016.27 1016.33 1016.29 1016.23 1016.20 1016.24 1016.37 1016.60 1016.91 1017.26
1011.66 1011.28 1010.82 1010.29 1009.69 1009.06 1008.40 1007.76 1007.16 1006.64 1006.24 1005.98 1005.86 1005.90 1006.07 1006.34 1006.69 1007.08 1007.49 1007.90 1008.30 1008.72 1009.17 1009.67 1010.25 1010.91 1011.66 1012.46 1013.28 1014.07 1014.78 1015.36 1015.80 1016.09 1016.23 1016.28 1016.28 1016.28 1016.32 1016.44 1016.65 1016.95 1017.30 1017.67
1011.82 1011.36 1010.85 1010.29 1009.69 1009.06 1008.42 1007.81 1007.24 1006.75 1006.37 1006.11 1005.98 1006.00 1006.14 1006.38 1006.70 1007.08 1007.50 1007.95 1008.41 1008.91 1009.45 1010.04 1010.69 1011.39 1012.15 1012.92 1013.67 1014.36 1014.97 1015.45 1015.80 1016.03 1016.16 1016.23 1016.28 1016.36 1016.50 1016.72 1017.01 1017.37 1017.76 1018.15
1011.78 1011.24 1010.69 1010.11 1009.51 1008.91 1008.32 1007.75 1007.23 1006.78 1006.41 1006.15 1006.02 1006.01 1006.12 1006.34 1006.66 1007.05 1007.50 1008.01 1008.55 1009.14 1009.77 1010.44 1011.14 1011.87 1012.61 1013.32 1013.99 1014.58 1015.08 1015.46 1015.74 1015.94 1016.07 1016.18 1016.30 1016.47 1016.71 1017.02 1017.39 1017.80 1018.22 1018.60
1011.50 1010.89 1010.29 1009.71 1009.14 1008.58 1008.05 1007.54 1007.07 1006.66 1006.33 1006.09 1005.96 1005.95 1006.05 1006.27 1006.60 1007.02 1007.52 1008.10 1008.72 1009.40 1010.11 1010.84 1011.57 1012.30 1013.00 1013.65 1014.22 1014.71 1015.11 1015.41 1015.64 1015.81 1015.96 1016.12 1016.32 1016.58 1016.90 1017.29 1017.72 1018.16 1018.58 1018.95
1011.00 1010.33 1009.70 1009.12 1008.58 1008.08 1007.61 1007.18 1006.78 1006.44 1006.15 1005.95 1005.85 1005.85 1005.97 1006.21 1006.57 1007.03 1007.59 1008.23 1008.93 1009.68 1010.44 1011.20 1011.95 1012.65 1013.30 1013.87 1014.35 1014.75 1015.07 1015.31 1015.51 1015.67 1015.85 1016.06 1016.33 1016.65 1017.04 1017.48 1017.94 1018.39 1018.79 1019.13
1010.32 1009.61 1008.98 1008.41 1007.91 1007.47 1007.08 1006.73 1006.42 1006.15 1005.94 1005.79 1005.74 1005.79 1005.95 1006.22 1006.62 1007.13 1007.74 1008.44 1009.18 1009.97 1010.75 1011.52 1012.24 1012.90 1013.49 1013.98 1014.39 1014.72 1014.97 1015.18 1015.36 1015.54 1015.75 1016.00 1016.32 1016.69 1017.11 1017.57 1018.02 1018.46 1018.83 1019.12
1009.57 1008.85 1008.22 1007.68 1007.23 1006.86 1006.54 1006.28 1006.06 1005.88 1005.75 1005.68 1005.69 1005.80 1006.02 1006.34 1006.79 1007.34 1007.98 1008.70 1009.47 1010.25 1011.02 1011.76 1012.44 1013.04 1013.56 1014.00 1014.34 1014.62 1014.85 1015.04 1015.23 1015.43 1015.67 1015.96 1016.30 1016.69 1017.12 1017.56 1017.98 1018.38 1018.70 1018.95
1008.84 1008.13 1007.53 1007.03 1006.63 1006.31 1006.07 1005.89 1005.75 1005.66 1005.61 1005.63 1005.72 1005.90 1006.17 1006.55 1007.04 1007.62 1008.27 1008.99 1009.74 1010.50 1011.23 1011.91 1012.53 1013.08 1013.54 1013.92 1014.23 1014.49 1014.71 1014.92 1015.13 1015.37 1015.64 1015.95 1016.30 1016.68 1017.08 1017.48 1017.86 1018.19 1018.47 1018.67
1008.22 1007.54 1006.97 1006.50 1006.14 1005.87 1005.69 1005.56 1005.50 1005.48 1005.52 1005.61 1005.78 1006.03 1006.37 1006.80 1007.32 1007.91 1008.57 1009.26 1009.97 1010.67 1011.34 1011.96 1012.52 1013.00 1013.42 1013.77 1014.07 1014.34 1014.58 1014.82 1015.07 1015.34 1015.64 1015.97 1016.32 1016.68 1017.03 1017.38 1017.69 1017.96 1018.18 1018.34
1007.76 1007.11 1006.56 1006.11 1005.77 1005.53 1005.37 1005.28 1005.26 1005.30 1005.41 1005.57 1005.81 1006.13 1006.53 1007.00 1007.54 1008.15 1008.79 1009.45 1010.11 1010.75 1011.35 1011.91 1012.40 1012.84 1013.22 1013.56 1013.87 1014.16 1014.45 1014.74 1015.04 1015.35 1015.68 1016.01 1016.35 1016.67 1016.98 1017.26 1017.51 1017.72 1017.88 1018.01
1007.46 1006.83 1006.29 1005.84 1005.49 1005.24 1005.07 1004.99 1004.99 1005.06 1005.21 1005.43 1005.73 1006.11 1006.56 1007.08 1007.65 1008.26 1008.88 1009.52 1010.13 1010.71 1011.25 1011.75 1012.19 1012.60 1012.97 1013.31 1013.65 1013.98 1014.32 1014.66 1015.01 1015.37 1015.72 1016.06 1016.37 1016.66 1016.92 1017.14 1017.32 1017.47 1017.58 1017.67
1007.30 1006.66 1006.10 1005.62 1005.23 1004.93 1004.73 1004.63 1004.61 1004.69 1004.86 1005.13 1005.48 1005.91 1006.42 1006.98 1007.59 1008.21 1008.84 1009.45 1010.03 1010.57 1011.06 1011.51 1011.93 1012.31 1012.68 1013.04 1013.41 1013.78 1014.17 1014.57 1014.96 1015.35 1015.72 1016.05 1016.35 1016.60 1016.81 1016.97 1017.09 1017.18 1017.25 1017.31
1007.22 1006.55 1005.94 1005.40 1004.95 1004.58 1004.32 1004.16 1004.12 1004.18 1004.37 1004.66 1005.06 1005.54 1006.10 1006.71 1007.36 1008.01 1008.65 1009.26 1009.83 1010.35 1010.82 1011.25 1011.65 1012.03 1012.40 1012.78 1013.18 1013.59 1014.01 1014.44 1014.86 1015.27 1015.64 1015.97 1016.24 1016.45 1016.61 1016.72 1016.79 1016.83 1016.85 1016.87
1007.16 1006.44 1005.77 1005.15 1004.61 1004.16 1003.82 1003.61 1003.52 1003.57 1003.75 1004.07 1004.50 1005.04 1005.66 1006.32 1007.02 1007.71 1008.39 1009.02 1009.59 1010.12 1010.59 1011.01 1011.41 1011.79 1012.17 1012.56 1012.97 1013.39 1013.83 1014.27 1014.70 1015.10 1015.45 1015.76 1016.00 1016.18 1016.29 1016.35 1016.37 1016.37 1016.35 1016.32
1007.07 1006.30 1005.56 1004.86 1004.24 1003.71 1003.30 1003.03 1002.90 1002.93 1003.11 1003.45 1003.92 1004.51 1005.18 1005.90 1006.65 1007.40 1008.11 1008.78 1009.38 1009.93 1010.41 1010.84 1011.25 1011.63 1012.01 1012.40 1012.80 1013.22 1013.64 1014.06 1014.47 1014.84 1015.16 1015.42 1015.62 1015.76 1015.83 1015.86 1015.84 1015.79 1015.73 1015.66
1006.93 1006.11 1005.31 1004.56 1003.87 1003.29 1002.83 1002.51 1002.36 1002.37 1002.56 1002.92 1003.42 1004.04 1004.76 1005.54 1006.34 1007.13 1007.89 1008.60 1009.24 1009.81 1010.32 1010.77 1011.18 1011.56 1011.94 1012.31 1012.69 1013.07 1013.46 1013.83 1014.19 1014.51 1014.78 1014.99 1015.15 1015.24 1015.28 1015.27 1015.22 1015.14 1015.04 1014.93
1006.74 1005.90 1005.07 1004.29 1003.58 1002.96 1002.48 1002.15 1001.99 1002.01 1002.21 1002.58 1003.10 1003.76 1004.51 1005.31 1006.15 1006.98 1007.77 1008.51 1009.18 1009.78 1010.30 1010.77 1011.19 1011.57 1011.93 1012.28 1012.62 1012.95 1013.28 1013.60 1013.89 1014.14 1014.35 1014.52 1014.63 1014.68 1014.69 1014.66 1014.58 1014.48 1014.35 1014.21
1006.52 1005.69 1004.88 1004.10 1003.40 1002.81 1002.34 1002.02 1001.88 1001.91 1002.12 1002.50 1003.03 1003.70 1004.45 1005.27 1006.11 1006.95 1007.76 1008.51 1009.19 1009.81 1010.34 1010.82 1011.24 1011.62 1011.96 1012.27 1012.58 1012.86 1013.13 1013.38 1013.60 1013.79 1013.95 1014.06 1014.13 1014.16 1014.15 1014.11 1014.03 1013.92 1013.78 1013.62
1006.31 1005.52 1004.76 1004.04 1003.39 1002.85 1002.43 1002.15 1002.04 1002.10 1002.32 1002.70 1003.23 1003.88 1004.61 1005.40 1006.22 1007.04 1007.83 1008.56 1009.24 1009.85 1010.40 1010.87 1011.29 1011.66 1011.98 1012.28 1012.54 1012.78 1013.00 1013.19 1013.36 1013.50 1013.61 1013.69 1013.74 1013.76 1013.75 1013.71 1013.65 1013.54 1013.41 1013.25
1006.13 1005.42 1004.74 1004.10 1003.55 1003.08 1002.74 1002.53 1002.47 1002.55 1002.78 1003.16 1003.66 1004.27 1004.95 1005.68 1006.44 1007.20 1007.95 1008.65 1009.29 1009.89 1010.42 1010.89 1011.30 1011.66 1011.98 1012.26 1012.50 1012.71 1012.90 1013.06 1013.19 1013.30 1013.39 1013.46 1013.51 1013.54 1013.55 1013.53 1013.49 1013.42 1013.30 1013.15
1006.00 1005.39 1004.82 1004.29 1003.84 1003.49 1003.23 1003.10 1003.09 1003.21 1003.45 1003.80 1004.26 1004.81 1005.42 1006.07 1006.74 1007.42 1008.09 1008.72 1009.32 1009.88 1010.39 1010.84 1011.25 1011.62 1011.94 1012.22 1012.46 1012.66 1012.84 1012.99 1013.12 1013.22 1013.32 1013.40 1013.46 1013.52 1013.56 1013.58 1013.57 1013.53 1013.45 1013.32
1005.94 1005.43 1004.97 1004.57 1004.24 1003.99 1003.83 1003.78 1003.82 1003.97 1004.21 1004.55 1004.96 1005.43 1005.95 1006.51 1007.08 1007.66 1008.24 1008.80 1009.34 1009.85 1010.32 1010.77 1011.17 1011.54 1011.87 1012.17 1012.42 1012.65 1012.84 1013.01 1013.15 1013.28 1013.39 1013.50 1013.59 1013.68 1013.76 1013.82 1013.86 1013.86 1013.81 1013.71
Thickness
5730 5739 5740 5738 5738 5738 5734 5731 5726 5732 5736 5747 5756 5760 5764 5766 5768 5768 5769 5769 5769 5767 5766 5767 5766 5765 5764 5763 5761 5759 5756 5753 5752 5751 5749 5746 5744 5742 5741 5739 5738 5737 5736 5735
5722 5731 5732 5728 5733 5735 5734 5734 5732 5734 5737 5752 5755 5757 5757 5759 5761 5761 5762 5764 5764 5764 5763 5761 5761 5762 5761 5759 5757 5754 5752 5750 5749 5747 5745 5742 5740 5739 5737 5735 5733 5732 5731 5731
5703 5717 5721 5711 5725 5728 5728 5733 5734 5729 5739 5747 5746 5748 5750 5752 5754 5755 5756 5757 5758 5759 5759 5758 5757 5757 5755 5754 5753 5750 5747 5746 5744 5741 5739 5737 5736 5733 5732 5730 5728 5727 5726 5725
5691 5703 5693 5712 5732 5732 5727 5729 5733 5736 5740 5742 5742 5744 5746 5748 5748 5748 5750 5751 5752 5752 5752 5752 5751 5750 5749 5747 5745 5744 5742 5740 5738 5735 5734 5732 5731 5727 5725 5724 5723 5721 5720 5719
5679 5681 5692 5711 5724 5725 5720 5719 5731 5732 5735 5735 5738 5738 5737 5743 5744 5744 5745 5745 5745 5746 5746 5745 5743 5743 5742 5739 5738 5735 5733 5732 5731 5729 5728 5726 5724 5722 5720 5718 5717 5715 5715 5713
5676 5679 5680 5705 5725 5729 5721 5710 5728 5730 5728 5727 5729 5719 5725 5736 5737 5737 5738 5738 5738 5738 5737 5735 5736 5736 5733 5731 5729 5727 5726 5725 5725 5724 5722 5720 5718 5716 5714 5711 5710 5709 5707 5706
5673 5677 5687 5711 5721 5721 5700 5707 5723 5724 5723 5722 5719 5720 5724 5728 5729 5730 5730 5731 5732 5732 5730 5728 5728 5728 5725 5723 5722 5722 5721 5719 5718 5716 5715 5713 5711 5709 5707 5704 5702 5700 5698 5697
5666 5670 5682 5709 5710 5705 5705 5714 5716 5718 5718 5717 5717 5719 5719 5719 5721 5722 5722 5723 5723 5723 5721 5721 5720 5719 5717 5715 5716 5715 5714 5712 5710 5709 5707 5705 5702 5700 5697 5695 5691 5689 5687 5686
5673 5679 5693 5700 5702 5706 5707 5707 5710 5711 5713 5713 5712 5712 5712 5712 5713 5714 5714 5714 5714 5713 5711 5711 5711 5710 5708 5709 5709 5707 5705 5703 5701 5700 5698 5696 5693 5690 5687 5685 5682 5680 5676 5675
5671 5680 5689 5694 5698 5702 5705 5705 5707 5708 5709 5709 5706 5706 5705 5705 5705 5705 5705 5705 5704 5703 5702 5701 5701 5701 5701 5701 5700 5698 5695 5693 5692 5690 5688 5687 5684 5682 5679 5676 5673 5670 5668 5665
5666 5676 5682 5688 5692 5696 5699 5702 5702 5703 5703 5702 5701 5699 5698 5697 5696 5696 5696 5696 5696 5695 5694 5692 5692 5692 5692 5692 5691 5689 5687 5684 5682 5680 5679 5676 5674 5672 5670 5668 5665 5662 5660 5658
5664 5673 5673 5679 5687 5691 5692 5693 5694 5694 5694 5695 5695 5693 5692 5690 5689 5688 5687 5687 5687 5686 5685 5684 5684 5684 5684 5684 5683 5680 5677 5675 5673 5671 5669 5667 5664 5661 5660 5658 5656 5654 5652 5649
5672 5675 5675 5679 5682 5685 5685 5687 5687 5687 5687 5686 5686 5686 5685 5683 5682 5681 5680 5680 5679 5678 5677 5676 5676 5675 5675 5675 5673 5671 5668 5666 5664 5662 5660 5657 5655 5652 5649 5648 5646 5644 5642 5639
5671 5671 5670 5673 5674 5678 5679 5680 5681 5680 5679 5679 5678 5678 5676 5674 5673 5672 5671 5671 5671 5670 5669 5668 5668 5666 5666 5666 5664 5662 5660 5658 5656 5653 5651 5648 5645 5643 5640 5639 5636 5634 5632 5629
5666 5667 5666 5668 5670 5671 5672 5672 5671 5670 5670 5669 5669 5668 5667 5665 5664 5663 5663 5663 5663 5662 5661 5660 5660 5659 5659 5658 5656 5654 5651 5649 5646 5644 5641 5638 5635 5633 5630 5629 5626 5624 5622 5620
5660 5662 5662 5662 5662 5663 5663 5664 5663 5662 5661 5661 5660 5659 5658 5657 5655 5654 5654 5654 5653 5652 5652 5651 5650 5650 5650 5649 5648 5645 5642 5640 5637 5634 5631 5628 5625 5623 5621 5618 5616 5613 5611 5610
5652 5652 5653 5653 5654 5655 5656 5657 5657 5656 5655 5654 5652 5651 5649 5647 5646 5645 5644 5645 5645 5644 5643 5642 5642 5642 5642 5641 5639 5635 5632 5630 5628 5625 5622 5619 5616 5614 5611 5609 5606 5604 5602 5600
5650 5651 5651 5650 5650 5650 5650 5651 5651 5650 5649 5648 5646 5644 5641 5639 5637 5636 5636 5637 5637 5636 5635 5635 5634 5634 5633 5632 5630 5627 5624 5621 5618 5616 5613 5610 5607 5605 5602 5600 5598 5595 5593 5591
5645 5645 5645 5645 5645 5645 5645 5645 5644 5643 5642 5641 5640 5637 5634 5632 5630 5629 5628 5628 5627 5626 5626 5626 5626 5625 5624 5622 5620 5617 5614 5612 5609 5607 5604 5601 5599 5596 5594 5592 5589 5587 5584 5582
5640 5639 5639 5639 5639 5639 5639 5639 5638 5637 5636 5635 5633 5630 5627 5625 5623 5622 5621 5620 5620 5620 5620 5619 5618 5617 5616 5614 5612 5608 5606 5603 5601 5598 5596 5594 5591 5589 5586 5583 5581 5578 5575 5573
5633 5633 5632 5632 5632 5633 5633 5633 5632 5631 5630 5629 5627 5624 5622 5620 5618 5616 5615 5614 5614 5614 5613 5612 5610 5609 5608 5606 5604 5601 5598 5596 5593 5591 5588 5586 5583 5580 5577 5574 5571 5568 5566 5562
5627 5627 5627 5627 5627 5625 5626 5626 5625 5624 5623 5622 5620 5618 5616 5613 5612 5611 5610 5609 5609 5608 5607 5605 5604 5602 5601 5599 5597 5594 5591 5588 5586 5583 5580 5577 5575 5572 5569 5565 5561 5558 5555 5552
5622 5622 5622 5622 5621 5620 5620 5620 5619 5619 5617 5616 5615 5613 5611 5609 5607 5606 5604 5603 5603 5601 5600 5598 5597 5596 5594 5593 5589 5586 5584 5581 5578 5575 5572 5570 5567 5564 5560 5556 5552 5549 5545 5541
5616 5617 5617 5616 5616 5615 5614 5613 5613 5613 5612 5611 5610 5609 5607 5605 5602 5601 5600 5598 5597 5595 5594 5592 5591 5589 5588 5586 5582 5580 5577 5574 5571 5568 5565 5562 5558 5555 5551 5547 5544 5540 5536 5532
5612 5611 5611 5611 5610 5609 5609 5608 5607 5607 5606 5605 5605 5603 5602 5601 5599 5597 5595 5593 5591 5590 5588 5587 5586 5584 5582 5579 5576 5573 5570 5567 5564 5561 5557 5554 5551 5547 5543 5540 5536 5531 5527 5523
5606 5606 5606 5606 5606 5605 5604 5604 5603 5602 5601 5600 5599 5598 5597 5595 5594 5592 5591 5589 5587 5585 5583 5581 5579 5577 5575 5572 5569 5566 5563 5560 5557 5554 5550 5547 5543 5539 5535 5531 5527 5522 5518 5514
5602 5601 5601 5600 5600 5600 5600 5600 5599 5597 5596 5595 5593 5592 5591 5590 5589 5587 5585 5583 5581 5580 5578 5575 5573 5571 5569 5566 5563 5559 5556 5553 5550 5546 5542 5538 5534 5530 5526 5522 5518 5513 5509 5505